Flag for Germany Weather past 2 weeks in Beckum, North Rhine-Westphalia, Germany

Now
57 °F

Passing clouds.


Feels Like: 56 °F
Forecast: 49 / 67 °F
Wind: 6 mph from West

Location: Dortmund / Wickede

Current Time: Sep 1, 2015 at 11:17:20 PM

Latest Report: Sep 1, 2015 at 10:50 PM


Visibility: N/A

Pressure: 30.01 "Hg

Humidity: 77%

Dew point: 50 °F

Location of BeckumLocation

Historic Weather in Beckum — Graph

°F

Beckum temperature yesterday

Maximum temperature yesterday: 88 °F (at 3:50 PM)
Minimum temperature yesterday: 68 °F (at 5:50 AM)
Average temperature yesterday: 79 °F

Past Weeks' High & Low Weather Summary

 TemperatureHumidityPressure
High88 °F (Aug 30, 2:20 PM)94% (Aug 18, 6:50 AM)30.24 "Hg (Aug 18, 6:50 AM)
Low50 °F (Aug 19, 5:20 AM)26% (Aug 22, 4:50 PM)29.56 "Hg (Aug 24, 2:50 PM)
Average67 °F63%29.97 "Hg
* Reported Aug 17 10:20 PM — Sep 1 10:20 PM, Beckum, Weather by CustomWeather, © 2015

Note: Actual official high and low records may vary slightly from our data, if they occured in-between our weather recording intervals... More about our weather records

Advertising

Beckum weather history for previous 24 hours

 ConditionsComfort  
Time TempWeatherWind HumidityBarometerVisibility
10:20 PM
Tue, Sep 1
57 °FPassing clouds.6 mph82%30.01 "HgN/A
9:50 PM59 °FPassing clouds.5 mph77%30.01 "HgN/A
9:20 PM57 °FPassing clouds.3 mph82%30.01 "HgN/A
8:50 PM59 °FSunny.3 mph77%30.01 "Hg10 mi
8:20 PM59 °FSunny.3 mph82%29.98 "Hg10 mi
7:50 PM59 °FSunny.3 mph82%29.98 "Hg10 mi
7:20 PM61 °FSunny.2 mph77%29.95 "Hg10 mi
6:50 PM61 °FPassing clouds.5 mph77%29.95 "HgN/A
6:20 PM61 °FScattered clouds.6 mph77%29.95 "HgN/A
5:50 PM63 °FScattered clouds.6 mph77%29.95 "HgN/A
5:20 PM61 °FBroken clouds.5 mph77%29.95 "HgN/A
4:50 PM59 °FBroken clouds.7 mph82%29.92 "HgN/A
4:20 PM59 °FPartly sunny.6 mph88%29.92 "HgN/A
3:50 PM59 °FLight rain. Broken clouds.5 mph88%29.92 "HgN/A
3:20 PM59 °FLight rain. Partly sunny.3 mph88%29.89 "HgN/A
2:50 PM61 °FLight rain. Partly sunny.6 mph83%29.89 "Hg6 mi
2:20 PM61 °FPartly sunny.6 mph83%29.89 "HgN/A
1:50 PM61 °FDrizzle. Partly sunny.6 mph88%29.86 "Hg6 mi
1:20 PM59 °FLight rain. Partly sunny.6 mph88%29.86 "Hg6 mi
12:50 PM59 °FLight rain. Partly sunny.6 mph88%29.86 "Hg6 mi
12:20 PM59 °FLight rain. Partly sunny.6 mph94%29.86 "Hg6 mi
11:50 AM59 °FLight rain. Broken clouds.6 mph88%29.83 "Hg4 mi
11:20 AM59 °FLight rain. Partly sunny.5 mph88%29.83 "Hg6 mi
10:50 AM59 °FDrizzle. Broken clouds.3 mph88%29.83 "HgN/A
10:20 AM59 °FLight rain. Broken clouds.6 mph88%29.83 "HgN/A
9:50 AM61 °FLight rain. Partly sunny.8 mph83%29.80 "Hg6 mi
9:20 AM61 °FDrizzle. Broken clouds.6 mph88%29.80 "HgN/A
8:50 AM63 °FLight rain. Partly sunny.7 mph83%29.80 "Hg4 mi
8:20 AM63 °FPartly sunny.9 mph77%29.83 "HgN/A
7:50 AM64 °FPartly sunny.8 mph73%29.83 "HgN/A
7:20 AM63 °FPassing clouds.8 mph77%29.83 "HgN/A
6:50 AM63 °FPassing clouds.7 mph77%29.83 "HgN/A
5:20 AM64 °FPassing clouds.10 mph73%29.80 "HgN/A
Weather by CustomWeather, © 2015

See weather overviewHow to use our weather pages